Flag for Czech Republic Weather past 2 weeks in Tábor, Czech Republic

Now
50 °F

Cool.


Feels Like: 50 °F
Forecast: 45 / 69 °F
Wind: 2 mph from East

Location: Kocelovice


UV Index: 3 (Moderate)

Visibility: 13 mi


Pressure: 30.02 "Hg

Humidity: 86%

Dew point: 46 °F

Location of TáborLocation

Historic Weather in Tábor

°F

Tábor temperature yesterday

Maximum temperature yesterday: 65 °F (at 2:00 PM)
Minimum temperature yesterday: 43 °F (at 7:00 AM)
Average temperature yesterday: 55 °F

Past Weeks' High & Low Weather Summary

 TemperatureHumidityPressure
High66 °F (Apr 23, 3:00 PM)100% (Apr 19, 4:00 AM)30.44 "Hg (Apr 19, 4:00 AM)
Low28 °F (Apr 17, 6:00 AM)29% (Apr 17, 5:00 PM)29.64 "Hg (Apr 21, 6:00 PM)
Average47 °F72%30.02 "Hg
* Reported Midnight between Apr 9 and Apr 10 — Midnight between Apr 24 and Apr 25, Tábor, Weather by CustomWeather, © 2014

Note: Actual official high and low records may vary slightly from our data, if they occured in-between our weather recording intervals... More about our weather records

Advertising

Historic Weather Conditions — Data for Previous 24 hours

 ConditionsComfort  
Time TempWeatherWind HumidityBarometerVisibility
12:00 AM
Apr 25
51 °FCool.5 mph83%30.02 "Hg12 mi
11:00 PM
Apr 24
53 °FCool.5 mph78%30.03 "Hg12 mi
10:00 PM54 °FOvercast.5 mph77%30.04 "Hg22 mi
9:00 PM54 °FOvercast.2 mph72%30.02 "Hg16 mi
8:00 PM57 °FOvercast.2 mph63%30.02 "Hg14 mi
7:00 PM59 °FOvercast.8 mph64%30.01 "Hg14 mi
6:00 PM62 °FOvercast.6 mph55%30.00 "Hg19 mi
5:00 PM64 °FOvercast.6 mph48%29.98 "Hg19 mi
4:00 PM63 °FOvercast.8 mph56%30.00 "Hg22 mi
3:00 PM65 °FPartly sunny.6 mph53%30.01 "Hg22 mi
2:00 PM65 °FOvercast.5 mph51%30.03 "Hg17 mi
1:00 PM63 °FOvercast.6 mph52%30.04 "Hg16 mi
12:00 PM62 °FPartly sunny.8 mph52%30.06 "Hg16 mi
11:00 AM62 °FPartly sunny.3 mph59%30.08 "Hg14 mi
10:00 AM60 °FPartly sunny.5 mph69%30.09 "Hg14 mi
9:00 AM56 °FPartly sunny.N/A79%30.11 "Hg12 mi
8:00 AM51 °FScattered clouds.No wind84%30.13 "Hg11 mi
7:00 AM43 °FFog.1 mph97%30.15 "Hg4 mi
6:00 AM44 °FFog.1 mph97%30.13 "Hg3 mi
5:00 AM44 °FFog.1 mph97%30.13 "Hg4 mi
4:00 AM46 °FCool.1 mph93%30.12 "Hg7 mi
3:00 AM46 °FCool.3 mph89%30.13 "Hg10 mi
2:00 AM49 °FCool.N/A84%30.12 "Hg12 mi
1:00 AM51 °FCool.1 mph78%30.12 "Hg12 mi
Weather by CustomWeather, © 2014

See weather overview